Weather in Yarkoye Pole

Russia / Republic of Crimea     45°12′22″N   35°12′03″E
temp.,
°C
wind,
m/s
gust,
m/s
humid.,
%
clouds,
%
prec.,
mm/h
press.,
hPa
HPBL,
m
23 october, sat
sat2300:00+13se118274 0.0 101815
03:00+13sse228690 0.0 101833
06:00+13s1180100 0.0 101725
09:00+15s1167100 0.0 101858
12:00+19wsw1348100 0.0 1018609
15:00+20wnw4646100 0.0 10171091
18:00+17wnw466393 0.0 1018102
21:00+14n478294 0.0 1019183
24 october, sun
sun2400:00+13n4591100 0.4 1021310
03:00+13n3584100 0.8 1021365
06:00+12nne2382100 0.0 1020162
09:00+12n6769100 0.2 1021523
12:00+10n6881100 4.3 1022715
15:00+9nnw7974100 10.1 10231116
18:00+9nnw466896 1.8 1024742
21:00+8w58715 1.8 1025352
25 october, mon
mon2500:00+9nw58645 0.1 1027579
03:00+7nw697243 0.3 1028425
06:00+7nnw687448 0.3 1029505
09:00+8nnw566679 0.3 1031999
12:00+8n5560100 0.1 10311126
15:00+9n5557100 0.1 10311448
18:00+7n45615 0.0 1032401
21:00+7ne23565 0.0 1032421
26 october, tue
tue2600:00+6se13605 0.0 1032390
03:00+4ssw22693 0.0 103271
06:00+4ssw11673 0.0 103248
09:00+7ese35605 0.0 1032270
12:00+10e56482 0.0 10311109
15:00+11ene56430 0.0 10291117
18:00+8e57550 0.0 1029363
21:00+7e58620 0.0 1028315
27 october, wed
wed2700:00+7e59680 0.0 1027246
03:00+6ese47743 0.0 1026174
06:00+6ese45770 0.0 1026114
09:00+8ese33710 0.0 1025162
12:00+11nne21600 0.0 1025498
15:00+11n32600 0.0 1023492
18:00+9nne33715 0.0 1024124
21:00+9wnw1175100 0.0 1024120